{"data":{"norad_id":61979,"epoch":"2026-09-21T01:45:39.687264Z","epoch_age_seconds":136047,"freshness":"FRESH","line1":"1 61979U 24210W   26264.07337601  .00006544  00000+0  24702-3 0  9994","line2":"2 61979  43.0016 156.2020 0001496 271.1932  88.8749 15.27595070104807","mean_motion":15.2759507,"eccentricity":0.0001496,"inclination_deg":43.0016,"raan_deg":156.202,"arg_perigee_deg":271.1932,"mean_anomaly_deg":88.8749,"bstar":0.00024702,"rev_number":10480,"period_min":94.265818755228,"perigee_km":481.9775447199,"apogee_km":484.03039809855,"semimajor_km":6861.1409714092,"source":"CELESTRAK","updated_at":"2026-09-22T09:00:49.481202Z"}}